[[{"header":{"parameterUnit":"m.s-1","parameterCategory":1,"la1":30.2991,"la2":30.254,"lo1":-89.0895,"lo2":-89.0444,"dy":0.0017,"dx":0.0017,"nx":28,"ny":28,"refTime":"2024-11-26T03:00:00:Z","depth":0,"parameterNumber":2,"parameterNumberName":"U-component_of_WINDS"},"data":[0,0,0,0,0,0,0,0,0,0,0,0,0,0,0,0,0,0,0,0,0,0,0,0,0,0,0,0,0,0,0,0,0,0,0,0,0,0,0,0,0,0,0,0,0,0,0,0,0,0,0,0,0,0,0,0,0,0,-1.4615,-1.4616,0,-1.4654,-1.4654,-1.4655,-1.4647,-1.4646,-1.4645,-1.4645,-1.4681,-1.4683,-1.4684,0,0,0,0,0,0,0,0,0,0,0,0,0,-1.4532,-1.4533,-1.4615,-1.4616,-1.4616,-1.4654,-1.4654,-1.4655,-1.4647,-1.4646,-1.4645,-1.4644,-1.4681,-1.4683,-1.4685,0,0,0,0,0,0,0,0,0,0,0,0,0,-1.4569,-1.4534,-1.4615,-1.4617,-1.4617,-1.4654,-1.4654,-1.4655,-1.4647,-1.4646,-1.4645,-1.4644,-1.468,-1.4682,-1.4685,-1.4721,0,0,-1.4692,-1.4693,0,0,0,0,0,0,0,0,-1.4567,-1.4572,-1.4616,-1.4617,-1.4617,-1.4644,-1.4638,-1.4677,-1.4647,-1.4636,-1.4644,-1.4643,-1.467,-1.4673,-1.4682,-1.4723,-1.4725,-1.4693,-1.4694,-1.4695,-1.4696,0,0,0,0,0,0,0,-1.4564,-1.457,-1.463,-1.4617,-1.4617,-1.4615,-1.4619,-1.4646,-1.4658,-1.4636,-1.4636,-1.4641,-1.467,-1.468,-1.4683,-1.4725,-1.4693,-1.4695,-1.4696,-1.4697,-1.4797,-1.4798,0,0,0,0,0,0,-1.4561,-1.4568,-1.4629,-1.4631,-1.4589,-1.4617,-1.4622,-1.4637,-1.4658,-1.466,-1.4642,-1.464,-1.4676,-1.468,-1.4684,-1.4728,-1.4695,-1.4697,-1.4699,-1.4796,-1.4797,-1.4798,0,0,0,0,0,0,-1.456,-1.4567,-1.4628,-1.46,-1.4607,-1.462,-1.4637,-1.4638,-1.4648,-1.4662,-1.4664,-1.465,-1.4676,-1.4681,-1.4712,-1.4729,-1.4699,-1.4701,-1.4794,-1.4796,-1.4798,-1.4816,0,0,0,0,0,0,-1.4557,-1.4566,-1.4581,-1.46,-1.4609,-1.4656,-1.4638,-1.464,-1.4653,-1.4651,-1.467,-1.4672,-1.4675,-1.4709,-1.4715,-1.4732,-1.4703,-1.4793,-1.4795,-1.4797,-1.4814,-1.4818,-1.4822,0,0,0,0,0,-1.4554,-1.4584,-1.4582,-1.4589,-1.4627,-1.4657,-1.4661,-1.4665,-1.4654,-1.4669,-1.4677,-1.4671,-1.4727,-1.4712,-1.4719,-1.4737,-1.4792,-1.4795,-1.4797,-1.4812,-1.4817,-1.4822,0,0,0,0,0,0,-1.4565,-1.4586,-1.4584,-1.4621,-1.4637,-1.4655,-1.4673,-1.4671,-1.469,-1.4687,-1.4691,-1.4695,-1.4727,-1.4735,-1.4718,-1.4773,-1.4757,-1.4762,-1.4766,-1.4772,-1.4775,-1.4772,-1.4705,0,0,0,0,0,-1.4572,-1.4595,-1.4612,-1.4643,-1.4651,-1.4661,-1.4674,-1.4675,-1.4692,-1.4698,-1.4709,-1.4725,-1.4745,-1.4759,-1.4779,-1.4815,-1.4819,-1.4831,-1.4835,-1.4838,-1.4841,-1.4861,-1.4866,-1.4807,-1.4807,-1.4807,0,0,-1.4586,-1.46,-1.4614,-1.4645,-1.4658,-1.4681,-1.4667,-1.4691,-1.4708,-1.4702,-1.4732,-1.4741,-1.4758,-1.4792,-1.4807,-1.48,-1.4859,-1.4842,-1.4844,-1.4846,-1.4864,-1.487,-1.4875,-1.4809,-1.4809,-1.4808,0,0,-1.4623,-1.4637,-1.4664,-1.4677,-1.4697,-1.4703,-1.471,-1.4729,-1.4734,-1.4765,-1.4761,-1.478,-1.4816,-1.4829,-1.484,-1.4882,-1.4877,-1.4888,-1.4909,-1.4928,-1.4932,-1.4936,-1.4951,-1.4956,-1.4892,-1.4892,-1.4892,0,-1.4637,-1.4673,-1.4678,-1.4703,-1.4716,-1.4713,-1.474,-1.4752,-1.4777,-1.4786,-1.4778,-1.4823,-1.4834,-1.4871,-1.4881,-1.489,-1.4897,-1.4886,-1.4931,-1.4936,-1.4939,-1.4953,-1.4959,-1.4893,-1.4893,-1.4893,-1.4893,0,-1.4689,-1.4714,-1.4733,-1.4758,-1.4774,-1.48,-1.4808,-1.4823,-1.4824,-1.4831,-1.4862,-1.4876,-1.4898,-1.4907,-1.4907,-1.4944,-1.4938,-1.4931,-1.4915,-1.4946,-1.4959,-1.4965,-1.4895,-1.4894,-1.4894,-1.4894,0,0,-1.4734,-1.4762,-1.4769,-1.478,-1.4802,-1.4821,-1.4846,-1.4869,-1.4882,-1.4899,-1.492,-1.4951,-1.4944,-1.4957,-1.4958,-1.4975,-1.5007,-1.4965,-1.4966,-1.4972,-1.5047,-1.5053,-1.5059,-1.5004,-1.5005,-1.5006,-1.5046,0,-1.4772,-1.4819,-1.4824,-1.4865,-1.4887,-1.4885,-1.4907,-1.4922,-1.4929,-1.4949,-1.4956,-1.4978,-1.4967,-1.4975,-1.4991,-1.5,-1.5022,-1.4997,-1.5023,-1.5024,-1.5018,-1.5066,-1.5072,-1.5108,-1.5051,-1.5052,-1.5053,0,-1.4824,-1.4844,-1.4887,-1.4906,-1.4916,-1.4936,-1.4957,-1.4976,-1.4993,-1.4997,-1.5011,-1.5011,-1.5037,-1.502,-1.5055,-1.5038,-1.5049,-1.5055,-1.5056,-1.5058,-1.504,-1.5069,-1.512,-1.5125,-1.5061,-1.506,-1.506,0,-1.4851,-1.4889,-1.492,-1.4929,-1.4952,-1.4967,-1.4977,-1.4993,-1.5006,-1.5025,-1.5034,-1.5054,-1.5066,-1.5082,-1.5086,-1.5074,-1.5121,-1.5105,-1.5124,-1.5124,-1.5134,-1.5133,-1.5187,-1.5142,-1.5142,-1.5142,-1.5141,0,-1.4893,-1.492,-1.4932,-1.4951,-1.498,-1.4986,-1.5015,-1.5024,-1.5038,-1.5058,-1.5057,-1.5076,-1.5081,-1.5101,-1.5105,-1.5133,-1.5138,-1.5141,-1.5142,-1.5141,-1.5141,-1.5148,-1.5145,-1.5143,-1.5143,-1.5142,-1.5142,0,-1.4929,-1.4938,-1.4972,-1.4991,-1.4997,-1.5017,-1.5033,-1.5051,-1.5058,-1.5084,-1.509,-1.5101,-1.5124,-1.5131,-1.5157,-1.516,-1.5193,-1.5191,-1.5187,-1.5187,-1.5206,-1.5204,-1.5266,-1.5274,-1.5224,-1.5224,-1.5225,0,-1.4955,-1.4975,-1.4997,-1.5011,-1.5022,-1.5044,-1.5058,-1.5065,-1.5079,-1.51,-1.5115,-1.5138,-1.5157,-1.5193,-1.5203,-1.5223,-1.5222,-1.5242,-1.5225,-1.5223,-1.5222,-1.522,-1.5222,-1.5245,-1.5246,-1.5246,-1.5247,0,-1.5,-1.5004,-1.5025,-1.5048,-1.5065,-1.5083,-1.51,-1.5111,-1.512,-1.5136,-1.516,-1.5174,-1.5202,-1.5224,-1.5245,-1.5255,-1.5252,-1.5252,-1.5258,-1.5257,-1.5253,-1.5255,-1.5196,-1.5251,-1.525,-1.525,-1.525,-1.5249,-1.5031,-1.5049,-1.5068,-1.5091,-1.5105,-1.5121,-1.5139,-1.5149,-1.5169,-1.5193,-1.5195,-1.5221,-1.5237,-1.5265,-1.5276,-1.5295,-1.5289,-1.5297,-1.5299,-1.5301,-1.5302,-1.5251,-1.5299,-1.5299,-1.5299,-1.5299,-1.5299,0,-1.5076,-1.5088,-1.5109,-1.5134,-1.5152,-1.515,-1.5168,-1.5183,-1.5206,-1.5222,-1.5241,-1.5268,-1.529,-1.5302,-1.5323,-1.5336,-1.5335,-1.5342,-1.534,-1.5342,-1.5306,-1.5299,-1.5342,-1.5342,-1.5342,-1.5342,-1.5342,-1.5342,-1.5101,-1.5132,-1.5138,-1.5175,-1.5186,-1.5212,-1.5223,-1.5238,-1.5251,-1.5281,-1.53,-1.5308,-1.5322,-1.5345,-1.5364,-1.5367,-1.5374,-1.5381,-1.5383,-1.5349,-1.5345,-1.5341,-1.5334,-1.5383,-1.5383,-1.5417,-1.5418,-1.5418]},{"header":{"parameterUnit":"m.s-1","parameterCategory":1,"la1":30.2991,"la2":30.254,"lo1":-89.0895,"lo2":-89.0444,"dy":0.0017,"dx":0.0017,"nx":28,"ny":28,"refTime":"2024-11-26T03:00:00:Z","depth":0,"parameterNumber":3,"parameterNumberName":"V-component_of_WINDS"},"data":[0,0,0,0,0,0,0,0,0,0,0,0,0,0,0,0,0,0,0,0,0,0,0,0,0,0,0,0,0,0,0,0,0,0,0,0,0,0,0,0,0,0,0,0,0,0,0,0,0,0,0,0,0,0,0,0,0,0,-0.8869,-0.887,0,-0.8974,-0.8975,-0.8976,-0.9002,-0.9002,-0.9001,-0.9,-0.9108,-0.9111,-0.9115,0,0,0,0,0,0,0,0,0,0,0,0,0,-0.8693,-0.8696,-0.8869,-0.887,-0.8871,-0.8973,-0.8975,-0.8976,-0.9002,-0.9001,-0.9001,-0.9,-0.9107,-0.9111,-0.9115,0,0,0,0,0,0,0,0,0,0,0,0,0,-0.8781,-0.8697,-0.8869,-0.8897,-0.89,-0.8973,-0.8975,-0.8977,-0.9002,-0.9001,-0.9,-0.9,-0.9106,-0.9111,-0.9116,-0.9168,0,0,-0.9132,-0.9134,0,0,0,0,0,0,0,0,-0.8776,-0.8787,-0.8891,-0.8895,-0.8899,-0.8974,-0.8952,-0.9041,-0.9003,-0.8964,-0.9,-0.8999,-0.9064,-0.9073,-0.9095,-0.9173,-0.9178,-0.9132,-0.9135,-0.9138,-0.9139,0,0,0,0,0,0,0,-0.877,-0.8783,-0.891,-0.8893,-0.8898,-0.8905,-0.8916,-0.8969,-0.9018,-0.8967,-0.8969,-0.8981,-0.9066,-0.909,-0.9097,-0.9179,-0.9132,-0.9137,-0.914,-0.9142,-0.9308,-0.9309,0,0,0,0,0,0,-0.8759,-0.8778,-0.8907,-0.8913,-0.8834,-0.8909,-0.8921,-0.8951,-0.9018,-0.9027,-0.8982,-0.8982,-0.9081,-0.9091,-0.9101,-0.9168,-0.9138,-0.9143,-0.9146,-0.9306,-0.9308,-0.9309,0,0,0,0,0,0,-0.8755,-0.877,-0.8903,-0.8846,-0.8864,-0.8913,-0.8946,-0.8953,-0.8977,-0.9029,-0.9038,-0.8997,-0.9081,-0.9094,-0.9152,-0.9172,-0.9145,-0.915,-0.9305,-0.9307,-0.9309,-0.93,0,0,0,0,0,0,-0.875,-0.8768,-0.8788,-0.8846,-0.8867,-0.8951,-0.8947,-0.8956,-0.8986,-0.8987,-0.9045,-0.9054,-0.9081,-0.9144,-0.9157,-0.9179,-0.9154,-0.9303,-0.9306,-0.9308,-0.9299,-0.9302,-0.9304,0,0,0,0,0,-0.8743,-0.8782,-0.8789,-0.8805,-0.8892,-0.8952,-0.8963,-0.8993,-0.8987,-0.9008,-0.9042,-0.9052,-0.9167,-0.9149,-0.9164,-0.9188,-0.9302,-0.9305,-0.9308,-0.9298,-0.9301,-0.9304,0,0,0,0,0,0,-0.8725,-0.879,-0.8799,-0.8857,-0.8899,-0.8956,-0.8983,-0.8996,-0.904,-0.9039,-0.9075,-0.9088,-0.9143,-0.9172,-0.915,-0.9243,-0.9235,-0.9241,-0.9222,-0.9226,-0.9228,-0.922,-0.9158,0,0,0,0,0,-0.8727,-0.877,-0.8825,-0.8871,-0.8891,-0.8934,-0.8961,-0.898,-0.9025,-0.9043,-0.9081,-0.9124,-0.917,-0.9199,-0.9245,-0.9303,-0.9317,-0.9327,-0.933,-0.9332,-0.9336,-0.937,-0.9376,-0.9319,-0.9319,-0.9318,0,0,-0.8733,-0.8774,-0.8799,-0.8868,-0.8903,-0.8946,-0.8948,-0.8994,-0.9027,-0.905,-0.9106,-0.9136,-0.9187,-0.9245,-0.9273,-0.927,-0.9355,-0.9335,-0.9336,-0.934,-0.9374,-0.9379,-0.9384,-0.932,-0.932,-0.932,0,0,-0.8766,-0.8801,-0.8844,-0.8879,-0.8931,-0.8959,-0.897,-0.9026,-0.9046,-0.9104,-0.9122,-0.9162,-0.924,-0.9276,-0.9304,-0.9352,-0.9364,-0.9366,-0.9379,-0.9412,-0.9416,-0.9421,-0.9438,-0.9444,-0.9371,-0.9371,-0.9371,0,-0.8767,-0.8833,-0.8864,-0.891,-0.894,-0.8963,-0.9007,-0.9039,-0.9104,-0.9124,-0.9121,-0.922,-0.9256,-0.9324,-0.9336,-0.9358,-0.9371,-0.9359,-0.9413,-0.9418,-0.9422,-0.9439,-0.9446,-0.9371,-0.9371,-0.9371,-0.9371,0,-0.8832,-0.8878,-0.8906,-0.8968,-0.9001,-0.9046,-0.9084,-0.9115,-0.9132,-0.9161,-0.922,-0.9263,-0.9318,-0.9336,-0.9353,-0.9407,-0.9404,-0.9406,-0.9399,-0.9427,-0.9444,-0.9451,-0.9371,-0.9371,-0.9371,-0.9371,0,0,-0.8855,-0.8935,-0.8944,-0.8973,-0.9033,-0.907,-0.9116,-0.9169,-0.9195,-0.9239,-0.9279,-0.9345,-0.9349,-0.9381,-0.9402,-0.9431,-0.9467,-0.943,-0.9432,-0.9436,-0.953,-0.9528,-0.9535,-0.9475,-0.9477,-0.9478,-0.9526,0,-0.8896,-0.8978,-0.9008,-0.9076,-0.912,-0.9142,-0.9183,-0.9224,-0.9253,-0.9294,-0.9326,-0.9372,-0.9372,-0.9392,-0.9422,-0.9456,-0.9486,-0.9453,-0.9513,-0.9515,-0.95,-0.9544,-0.9541,-0.9584,-0.9533,-0.9534,-0.9535,0,-0.8954,-0.8999,-0.9071,-0.9127,-0.9147,-0.9182,-0.9234,-0.9273,-0.9321,-0.934,-0.9377,-0.9396,-0.9446,-0.9436,-0.9506,-0.9482,-0.9509,-0.953,-0.9532,-0.9539,-0.9526,-0.9552,-0.9599,-0.9605,-0.9545,-0.9544,-0.9544,0,-0.8964,-0.9043,-0.9097,-0.9121,-0.9187,-0.9212,-0.9241,-0.9288,-0.9318,-0.9364,-0.9385,-0.9436,-0.9464,-0.9503,-0.9537,-0.9526,-0.9604,-0.9596,-0.9621,-0.962,-0.9636,-0.9635,-0.9688,-0.9653,-0.9653,-0.9653,-0.9652,0,-0.9007,-0.905,-0.9103,-0.9135,-0.9185,-0.922,-0.9268,-0.9299,-0.9341,-0.9381,-0.9404,-0.9441,-0.9482,-0.9525,-0.9551,-0.9605,-0.9618,-0.9635,-0.9641,-0.9633,-0.9631,-0.9651,-0.9649,-0.9654,-0.9654,-0.9654,-0.9653,0,-0.9026,-0.9063,-0.9123,-0.9181,-0.9197,-0.9231,-0.9281,-0.9315,-0.9344,-0.9395,-0.9409,-0.9455,-0.9507,-0.9544,-0.9611,-0.9629,-0.9687,-0.9693,-0.967,-0.9674,-0.9697,-0.9694,-0.9765,-0.9777,-0.9733,-0.9733,-0.9734,0,-0.9051,-0.9085,-0.9147,-0.9175,-0.9204,-0.9249,-0.9281,-0.9317,-0.9349,-0.9407,-0.9434,-0.9487,-0.9531,-0.9613,-0.9653,-0.9704,-0.9712,-0.9734,-0.972,-0.9711,-0.9713,-0.9711,-0.9715,-0.9736,-0.9736,-0.9736,-0.9736,0,-0.9091,-0.9107,-0.9152,-0.9204,-0.9241,-0.9283,-0.9326,-0.9348,-0.9391,-0.9427,-0.948,-0.9514,-0.9582,-0.9635,-0.9691,-0.9721,-0.9736,-0.974,-0.9749,-0.9741,-0.9726,-0.9735,-0.9676,-0.9738,-0.9738,-0.9738,-0.9738,-0.9738,-0.9114,-0.9145,-0.9194,-0.9244,-0.928,-0.9319,-0.9354,-0.9388,-0.9433,-0.9491,-0.951,-0.9565,-0.9614,-0.969,-0.9721,-0.9765,-0.9764,-0.9777,-0.978,-0.9782,-0.9782,-0.9719,-0.9775,-0.9775,-0.9775,-0.9775,-0.9775,0,-0.9155,-0.9188,-0.9233,-0.9292,-0.9331,-0.9342,-0.9391,-0.9423,-0.9471,-0.9515,-0.9558,-0.962,-0.9671,-0.9716,-0.977,-0.9797,-0.9805,-0.981,-0.9808,-0.9815,-0.978,-0.9767,-0.9802,-0.9802,-0.9802,-0.9802,-0.9802,-0.9802,-0.9181,-0.9236,-0.9258,-0.9331,-0.9364,-0.9418,-0.9445,-0.9482,-0.9517,-0.9585,-0.9628,-0.9657,-0.9702,-0.9759,-0.9807,-0.9819,-0.9838,-0.9841,-0.9855,-0.9821,-0.9817,-0.9814,-0.9803,-0.9845,-0.9845,-0.9887,-0.9887,-0.9887]}]]